Theta_e
304 302 302 300 298 300 302 307 306 307 308 308 307 301 302 305 304 304 300 303 307 304 307 308 312 317 319 319 319 320 322 322 318 315 310 307 305 302 300 298 297 296 296 294 294
303 302 301 300 299 298 299 303 306 307 307 307 305 300 303 309 304 302 299 302 304 305 307 306 305 314 317 319 320 322 322 320 313 309 307 304 306 304 300 299 298 295 293 292 291
303 302 301 299 299 299 298 299 299 300 300 303 305 300 309 308 300 298 299 299 302 305 307 306 306 313 315 318 319 318 317 312 309 308 307 305 301 302 303 299 296 295 293 292 290
304 303 302 299 299 299 299 298 298 299 299 299 303 302 303 306 301 297 298 299 301 306 309 310 309 313 315 317 315 313 312 308 307 306 307 305 300 300 299 297 295 294 293 292 291
303 303 303 301 299 298 299 299 299 299 299 300 300 300 301 293 294 295 299 299 303 306 302 304 306 311 315 314 311 310 309 307 304 303 302 299 298 298 298 295 293 293 292 291 291
303 302 301 301 301 298 298 298 299 299 298 299 300 300 297 293 295 295 299 299 300 301 298 300 303 302 301 303 311 307 306 306 302 301 300 300 299 298 295 294 293 292 291 290 290
303 301 298 298 299 298 297 297 297 298 297 298 299 299 295 293 294 295 297 298 297 299 296 297 302 303 302 308 305 305 304 302 300 307 306 305 299 298 295 293 292 292 291 290 289
300 299 297 298 298 298 298 298 298 297 297 298 298 298 293 295 294 295 295 297 297 297 298 298 300 297 298 299 297 300 298 303 299 300 303 300 299 297 295 292 292 291 291 290 289
298 300 298 297 297 298 300 299 297 298 298 298 297 296 292 295 293 293 293 292 295 297 297 297 294 292 293 299 299 295 298 298 300 296 301 301 298 295 293 292 291 291 290 290 289
296 299 299 299 299 299 300 300 297 298 297 296 295 294 292 291 293 292 294 292 292 294 294 292 291 291 290 293 297 296 298 300 298 295 295 295 294 293 292 291 291 290 290 290 289
296 296 298 299 299 299 300 299 295 293 293 290 292 292 292 292 292 291 292 291 291 290 291 290 291 289 288 288 290 291 294 294 294 297 293 292 292 291 291 290 290 290 289 289 289
296 296 298 298 298 298 298 295 294 294 291 292 292 292 292 291 289 290 293 288 288 288 288 289 288 286 288 290 291 293 297 297 299 297 293 293 292 291 290 289 289 289 288 288 288
296 296 299 298 298 298 297 295 295 294 291 292 291 291 291 291 288 288 289 291 287 288 287 287 288 288 289 288 292 291 291 292 300 297 294 294 294 292 291 289 288 288 288 288 288
296 296 297 298 298 297 296 297 297 294 294 292 292 292 290 290 290 289 288 289 288 290 287 287 287 288 288 288 289 294 290 293 299 297 299 296 295 295 291 289 288 288 287 287 287
296 297 297 297 298 298 298 300 302 296 293 293 291 292 290 290 289 289 288 289 287 287 288 288 287 287 287 288 289 293 291 293 297 296 293 293 297 295 290 290 288 287 288 287 286
297 296 297 298 298 298 298 298 296 296 289 294 291 290 291 289 289 287 286 287 288 289 288 288 287 287 287 287 289 290 293 292 291 293 287 289 290 291 292 292 289 287 287 287 286
295 298 296 297 297 298 297 296 297 295 290 292 292 290 289 289 289 287 286 285 287 289 288 289 287 287 286 288 289 289 291 283 288 285 290 288 288 291 291 291 288 287 286 286 285
295 297 297 296 297 297 296 295 291 285 288 291 292 290 289 288 288 287 287 286 284 285 283 286 289 287 287 287 288 289 286 287 285 288 287 285 289 292 292 289 286 286 286 286 284
294 294 295 298 296 299 295 292 294 289 291 292 290 291 289 289 288 287 286 285 286 286 285 284 288 287 288 287 286 286 288 285 275 267 280 286 286 286 289 287 286 285 285 284 283
294 294 293 295 299 295 294 297 289 291 291 292 293 289 287 287 288 285 286 286 286 286 285 284 286 287 287 287 287 288 286 285 279 282 283 286 284 287 291 289 286 285 284 283 283
295 291 292 294 293 292 294 289 293 290 291 292 290 290 289 288 287 284 286 286 286 286 285 283 283 286 287 286 285 285 286 283 280 281 282 283 289 282 287 290 289 286 285 284 283
293 293 291 291 294 275 286 287 290 288 289 290 289 289 288 287 288 286 287 287 286 286 285 285 279 282 287 285 284 285 284 283 283 281 280 283 285 287 287 287 288 288 288 284 283
291 291 290 291 295 284 284 288 288 288 288 290 289 289 287 287 285 287 285 286 286 287 286 285 281 279 285 284 285 285 285 283 278 277 279 282 287 284 284 286 286 285 285 284 284
290 291 288 288 288 289 287 286 287 287 288 289 288 287 286 286 284 282 285 287 286 286 290 285 280 283 287 285 281 284 284 280 278 277 281 283 285 285 284 285 285 284 284 283 283
288 290 290 290 289 289 290 286 286 287 288 287 288 288 287 282 284 280 283 286 286 290 285 281 279 279 278 281 282 284 286 283 281 281 283 284 283 286 285 284 284 284 285 285 285
288 289 285 284 287 289 288 287 289 288 288 288 288 288 285 285 288 284 284 285 287 286 287 283 277 277 277 278 281 284 285 285 284 284 284 285 285 287 287 285 284 285 285 286 285
288 289 292 288 288 290 289 290 290 288 287 288 288 287 286 286 285 284 285 284 285 285 281 278 277 274 278 277 275 282 282 284 285 284 285 284 286 285 285 284 285 285 285 285 285
Wind_Speed
15 16 17 19 23 22 17 14 9 6 7 9 14 20 7 7 25 44 25 21 21 24 14 13 15 7 13 5 6 2 3 7 7 9 6 4 10 14 16 23 27 18 16 14 18
13 14 15 17 18 24 23 16 13 11 7 6 10 20 8 6 14 31 33 27 26 23 13 14 8 13 5 4 5 5 4 6 9 13 16 19 14 11 13 20 18 20 23 21 23
11 12 13 15 15 15 20 26 27 21 10 6 7 18 6 7 8 10 34 31 26 19 10 9 3 5 8 7 7 5 7 19 21 22 22 21 26 13 5 17 16 17 16 22 27
9 9 10 13 14 14 9 12 20 27 29 16 6 16 16 4 6 19 28 34 23 16 14 22 12 5 6 15 11 15 18 15 15 13 11 18 16 21 19 12 14 18 19 19 28
8 7 8 8 11 11 10 9 12 15 20 29 12 5 10 9 5 29 21 30 19 24 22 4 9 9 11 13 23 19 17 17 23 22 21 23 21 13 17 13 16 18 21 26 26
8 7 7 6 7 9 11 8 7 9 14 16 31 30 17 14 18 27 20 24 28 22 24 16 6 8 10 5 12 15 20 18 20 21 16 23 12 5 11 8 11 13 17 22 25
8 7 6 5 8 10 13 16 21 8 17 9 19 7 25 8 20 26 20 17 24 18 9 19 3 9 6 19 18 19 21 17 15 4 5 2 18 12 8 8 12 14 14 20 23
7 9 9 12 12 9 9 14 5 14 21 7 5 17 7 22 28 32 26 11 16 29 14 17 18 11 6 7 4 4 5 4 11 9 7 4 5 6 3 7 12 13 13 14 21
6 9 8 13 17 17 9 21 3 3 8 15 11 10 5 19 31 33 22 12 9 12 27 21 16 7 8 3 4 9 4 6 3 18 5 5 6 5 4 8 11 11 12 12 13
4 6 8 10 11 2 10 10 28 2 5 6 23 6 10 9 23 28 17 20 10 5 10 14 7 7 6 7 1 3 5 8 7 8 19 17 14 7 6 7 8 8 9 9 10
2 4 6 10 12 11 8 4 3 8 22 7 1 5 4 21 10 27 26 11 11 10 7 9 14 6 6 5 3 7 9 8 3 2 8 8 9 5 4 5 7 6 6 7 8
3 5 2 4 4 2 3 5 3 10 8 9 6 4 4 11 8 30 29 10 11 6 3 8 10 6 4 5 8 7 10 4 2 4 6 4 4 2 2 2 3 4 6 6 5
4 6 4 4 4 5 13 11 12 8 7 4 4 4 5 8 5 11 13 4 8 14 15 9 2 5 3 7 6 6 5 2 4 4 6 4 1 3 1 2 2 3 2 3 4
5 7 5 5 4 13 7 9 4 2 5 11 8 6 6 4 6 11 11 2 7 4 4 8 5 4 6 6 4 3 3 1 6 3 4 2 3 4 5 4 2 0 2 3 5
6 6 4 1 13 4 8 6 2 1 4 5 6 5 5 9 5 11 11 8 6 5 3 2 6 6 7 4 3 3 1 3 2 4 4 4 1 3 3 5 5 5 3 3 4
6 7 8 8 5 11 9 6 2 7 3 3 3 6 4 7 6 7 8 9 1 6 8 4 1 4 2 2 3 3 3 5 3 2 3 3 3 3 4 5 4 4 6 4 4
6 7 4 5 7 12 8 3 5 6 4 3 3 4 4 6 6 9 5 8 4 5 6 3 4 4 4 3 3 4 4 3 4 4 3 2 2 6 5 6 6 9 8 6 5
7 8 13 12 13 11 4 6 6 3 5 0 2 2 4 4 4 6 3 4 5 4 4 3 4 6 8 3 1 4 4 4 4 1 4 4 4 3 2 3 5 5 5 5 6
7 7 7 7 7 6 5 5 8 8 7 8 3 3 2 1 3 4 4 3 0 3 5 4 1 2 3 3 1 3 4 3 7 1 3 2 5 3 2 4 5 6 5 7 7
5 6 4 6 8 3 5 5 3 2 6 3 5 3 5 3 2 4 1 2 3 2 1 3 4 1 3 1 6 3 5 3 3 2 3 4 5 4 5 8 8 8 8 8 6
4 3 1 8 6 5 4 6 4 2 2 4 5 5 2 5 3 3 4 0 3 2 4 4 2 2 2 4 2 2 2 6 5 3 4 1 6 6 7 8 8 9 9 8 7
7 1 1 8 4 1 4 7 5 4 0 2 4 4 5 5 3 3 5 3 4 4 4 1 4 2 1 2 1 1 4 3 4 4 1 2 7 4 7 5 6 8 7 6 7
4 2 2 2 4 1 2 2 2 4 5 5 3 2 2 6 3 2 2 1 5 3 6 6 1 3 7 4 3 3 4 4 4 3 5 5 6 2 4 4 6 7 7 6 6
3 1 3 4 1 9 7 3 4 1 4 3 5 4 4 3 4 5 3 3 4 2 7 5 2 6 6 5 4 3 3 4 5 4 4 7 7 8 7 8 7 8 8 8 9
3 4 2 3 3 5 5 7 7 8 2 4 2 5 8 5 3 3 2 3 1 7 3 4 4 2 2 3 2 4 4 9 9 6 7 3 8 14 5 7 9 10 10 8 9
5 4 2 2 4 7 2 9 12 6 9 6 6 11 7 8 8 11 8 6 5 3 3 2 2 2 4 3 2 7 11 14 14 10 14 12 19 23 21 9 9 12 8 8 10
5 4 3 3 4 6 6 9 12 12 3 1 8 7 6 5 4 5 4 6 8 7 4 4 6 3 5 4 6 8 9 17 8 7 12 9 14 2 6 7 8 9 8 10 11
Wind_Direction
72 70 58 59 55 50 54 52 52 43 24 17 6 350 11 58 29 33 35 337 334 343 352 4 29 43 60 62 33 345 88 128 129 127 112 55 79 64 61 67 58 63 56 36 24
78 73 64 63 59 56 54 53 47 42 25 11 5 13 80 95 31 29 3 7 3 358 5 15 3 26 54 33 30 31 83 57 92 109 94 63 62 87 62 51 50 47 39 35 33
87 76 70 57 53 54 56 61 55 45 20 345 12 24 84 119 61 345 3 7 11 9 20 22 27 56 48 53 12 8 89 100 91 107 97 85 57 50 42 49 35 35 29 27 34
95 82 73 57 49 49 56 45 47 51 42 43 87 60 63 122 63 336 356 9 16 28 66 55 33 53 68 60 50 90 65 58 73 68 81 71 82 64 53 54 52 41 35 38 42
95 88 72 58 45 47 45 44 41 36 45 48 61 89 46 50 10 344 357 13 30 42 48 58 56 66 81 86 71 68 89 76 83 75 79 86 70 68 54 49 43 56 44 40 40
92 84 68 56 57 47 34 32 13 35 36 53 62 72 71 63 344 359 6 19 30 43 43 49 81 98 59 69 56 111 84 69 78 84 75 74 51 76 47 58 49 48 56 56 50
94 79 44 76 102 79 75 60 38 72 34 60 50 57 57 34 7 12 21 33 33 45 46 36 70 86 134 97 132 118 100 81 24 46 143 127 40 46 25 50 57 53 51 53 51
102 95 65 102 111 100 46 352 355 60 25 72 69 61 82 9 14 26 23 47 53 50 67 62 75 96 56 91 49 46 62 70 23 18 32 71 84 38 343 55 51 47 45 45 45
102 134 91 103 111 112 58 12 355 303 52 56 58 88 7 348 1 9 14 2 2 47 54 65 57 59 24 48 48 18 72 26 41 10 113 104 125 138 47 66 63 50 47 46 41
110 143 160 144 128 65 344 348 47 109 21 27 34 54 18 315 333 1 15 25 29 6 24 29 51 62 29 32 93 55 95 53 54 7 76 94 114 104 81 80 71 57 50 45 40
133 157 204 242 253 278 313 334 6 4 34 76 281 93 286 335 26 11 3 9 25 48 49 23 59 32 319 335 76 96 88 92 46 306 59 72 101 96 76 75 71 59 51 43 35
46 162 206 240 242 257 7 67 101 145 78 33 67 50 357 350 14 357 18 60 36 49 356 52 54 329 290 27 75 70 90 72 109 40 87 121 91 109 78 52 65 62 42 33 12
40 157 104 129 124 104 103 109 114 123 82 8 47 45 341 8 55 331 13 56 65 56 55 83 297 321 67 38 57 34 86 127 125 104 64 128 156 188 169 130 77 41 20 15 3
50 159 131 106 128 118 94 125 120 87 77 337 349 11 354 351 49 11 13 73 41 104 91 74 344 32 51 68 357 74 350 130 117 83 143 14 264 253 193 200 188 198 352 336 345
78 109 167 198 138 115 143 134 101 56 52 326 338 334 13 79 307 2 7 25 75 20 115 62 8 23 46 6 335 88 132 96 92 88 88 346 66 260 139 232 223 228 249 302 316
67 117 112 119 102 127 134 121 56 44 258 7 334 348 32 27 15 308 23 32 77 61 53 100 58 50 329 310 6 120 91 49 55 73 36 259 123 251 193 205 186 213 226 232 287
74 80 152 128 133 139 133 66 38 112 338 279 18 16 82 14 18 24 41 18 46 76 20 27 25 343 37 8 46 60 61 359 8 13 209 348 46 245 228 217 193 192 216 233 262
125 89 86 106 129 136 111 56 83 239 212 115 121 67 81 354 30 11 74 48 38 30 82 101 354 13 339 61 142 48 130 140 193 278 272 334 240 249 244 197 204 196 205 233 271
159 107 91 108 140 146 77 62 198 194 151 151 92 104 27 110 124 72 37 141 355 28 118 110 77 339 59 31 48 264 49 153 105 75 37 268 282 279 158 215 223 226 242 254 269
192 104 79 133 141 119 76 213 151 147 126 145 154 145 168 221 141 63 190 213 139 46 140 224 82 39 292 182 34 87 144 61 10 63 314 291 281 243 215 225 228 239 240 251 266
152 77 69 142 130 56 157 205 166 196 147 152 161 131 157 158 126 172 172 286 190 114 100 138 82 268 12 22 166 22 33 48 106 101 159 264 271 210 208 212 218 234 238 241 255
136 40 350 159 64 339 145 167 132 154 148 121 107 111 151 161 136 156 185 184 156 148 125 157 138 126 147 167 259 189 189 134 114 258 84 123 273 220 214 215 215 236 231 233 250
136 148 75 158 150 237 292 87 123 141 178 164 129 126 128 152 92 187 163 58 133 137 166 191 358 25 346 3 360 208 180 115 102 80 205 144 263 238 266 245 233 238 252 262 268
105 116 339 59 359 138 145 191 149 233 145 136 124 99 104 104 43 174 145 181 156 147 127 98 102 163 193 201 129 177 194 171 127 129 183 231 284 254 236 231 243 248 261 274 271
49 238 192 208 257 146 134 131 139 174 197 177 93 204 161 120 74 180 200 126 35 166 83 115 180 124 268 259 297 231 183 189 202 180 179 246 222 258 234 219 240 253 266 265 267
134 146 348 129 112 112 181 212 166 172 152 220 208 176 168 153 182 190 142 189 182 150 139 65 211 92 314 347 306 279 224 220 219 230 255 255 276 269 273 279 272 261 252 258 266
147 134 116 151 142 121 206 183 194 136 272 222 159 123 163 191 118 103 97 105 138 138 134 119 133 92 267 341 332 296 231 197 187 210 206 198 233 278 267 241 255 262 248 251 258